| time (UTC) | temp F | wind direction | speed MPH | gust MPH | rain 1hr in | rain 24hr in | rain mn in | humidity % | barometer mb |
| 20260504020822 | 59 | 355 | 3.0 | 9.0 | 0.00 | 0.00 | 0.00 | 71 | 1034.1 |
| 20260504015700 | 59 | 239 | 4.0 | 9.0 | 0.00 | 0.00 | 0.00 | 71 | 1034.2 |
| 20260504015158 | 59 | 341 | 4.0 | 8.0 | 0.00 | 0.00 | 0.00 | 71 | 1034.3 |
| 20260504014639 | 59 | 331 | 3.0 | 8.0 | 0.00 | 0.00 | 0.00 | 71 | 1034.2 |
| 20260504014123 | 59 | 357 | 3.0 | 8.0 | 0.00 | 0.00 | 0.00 | 71 | 1034.2 |
| 20260504013631 | 59 | 246 | 3.0 | 8.0 | 0.00 | 0.00 | 0.00 | 71 | 1034.3 |
| 20260504013133 | 59 | 10 | 3.0 | 8.0 | 0.00 | 0.00 | 0.00 | 70 | 1034.3 |
| 20260504012614 | 59 | 348 | 3.0 | 7.0 | 0.00 | 0.00 | 0.00 | 70 | 1034.3 |
| 20260504012108 | 59 | 324 | 3.0 | 7.0 | 0.00 | 0.00 | 0.00 | 70 | 1034.4 |
| 20260504011612 | 59 | 350 | 3.0 | 7.0 | 0.00 | 0.00 | 0.00 | 70 | 1034.4 |
| 20260504011052 | 59 | 301 | 3.0 | 7.0 | 0.00 | 0.00 | 0.00 | 70 | 1034.5 |
| 20260504010555 | 60 | 7 | 3.0 | 7.0 | 0.00 | 0.00 | 0.00 | 70 | 1034.5 |
| 20260504010037 | 59 | 19 | 3.0 | 7.0 | 0.00 | 0.00 | 0.00 | 70 | 1034.6 |
| 20260504005523 | 59 | 345 | 3.0 | 7.0 | 0.00 | 0.00 | 0.00 | 70 | 1034.6 |
| 20260504005009 | 59 | 327 | 3.0 | 7.0 | 0.00 | 0.00 | 0.00 | 71 | 1034.7 |
| 20260504004501 | 59 | 0 | 2.0 | 6.0 | 0.00 | 0.00 | 0.00 | 71 | 1034.7 |
| 20260504004000 | 59 | 338 | 2.0 | 7.0 | 0.00 | 0.00 | 0.00 | 71 | 1034.8 |
| 20260504003442 | 59 | 299 | 2.0 | 7.0 | 0.00 | 0.00 | 0.00 | 71 | 1034.8 |
| 20260504002933 | 59 | 345 | 3.0 | 9.0 | 0.00 | 0.00 | 0.00 | 71 | 1034.8 |
| 20260504002419 | 59 | 12 | 3.0 | 9.0 | 0.00 | 0.00 | 0.00 | 71 | 1034.9 |
| 20260504001924 | 59 | 26 | 4.0 | 9.0 | 0.00 | 0.00 | 0.00 | 71 | 1034.9 |
| 20260504001419 | 59 | 56 | 4.0 | 8.0 | 0.00 | 0.00 | 0.00 | 71 | 1034.9 |
| 20260504000903 | 59 | 29 | 4.0 | 7.0 | 0.00 | 0.00 | 0.00 | 70 | 1035.0 |
| 20260504000410 | 59 | 51 | 4.0 | 9.0 | 0.00 | 0.00 | 0.00 | 71 | 1035.1 |
| 20260503235252 | 59 | 51 | 4.0 | 9.0 | 0.00 | 0.00 | 0.00 | 71 | 1035.1 |
| 20260503234112 | 59 | 7 | 4.0 | 7.0 | 0.00 | 0.00 | 0.00 | 69 | 1035.2 |
| 20260503233556 | 59 | 24 | 3.0 | 7.0 | 0.00 | 0.00 | 0.00 | 70 | 1035.2 |
| 20260503232437 | 59 | 0 | 3.0 | 6.0 | 0.00 | 0.00 | 0.00 | 71 | 1035.3 |
| 20260503231945 | 59 | 348 | 3.0 | 8.0 | 0.00 | 0.00 | 0.00 | 71 | 1035.3 |
| 20260503231432 | 58 | 357 | 4.0 | 8.0 | 0.00 | 0.00 | 0.00 | 71 | 1035.3 |
| 20260503230915 | 58 | 29 | 4.0 | 8.0 | 0.00 | 0.00 | 0.00 | 71 | 1035.3 |
| 20260503230410 | 58 | 30 | 4.0 | 8.0 | 0.00 | 0.00 | 0.00 | 71 | 1035.3 |
| 20260503225857 | 58 | 33 | 4.0 | 8.0 | 0.00 | 0.00 | 0.00 | 71 | 1035.4 |
| 20260503225347 | 58 | 26 | 4.0 | 8.0 | 0.00 | 0.00 | 0.00 | 71 | 1035.3 |
| 20260503224219 | 58 | 40 | 3.0 | 7.0 | 0.00 | 0.00 | 0.00 | 72 | 1035.2 |
| 20260503223105 | 58 | 28 | 4.0 | 9.0 | 0.00 | 0.00 | 0.00 | 72 | 1035.3 |
| 20260503222559 | 57 | 21 | 5.0 | 9.0 | 0.00 | 0.00 | 0.00 | 72 | 1035.3 |
| 20260503222039 | 57 | 70 | 5.0 | 9.0 | 0.00 | 0.00 | 0.00 | 72 | 1035.2 |
| 20260503220909 | 57 | 42 | 4.0 | 7.0 | 0.00 | 0.00 | 0.00 | 72 | 1035.3 |
| 20260503215752 | 57 | 42 | 3.0 | 8.0 | 0.00 | 0.00 | 0.00 | 73 | 1035.3 |
| 20260503215254 | 57 | 352 | 3.0 | 8.0 | 0.00 | 0.00 | 0.00 | 73 | 1035.3 |
| 20260503214737 | 57 | 49 | 4.0 | 8.0 | 0.00 | 0.00 | 0.00 | 73 | 1035.3 |
| 20260503214228 | 57 | 42 | 4.0 | 8.0 | 0.00 | 0.00 | 0.00 | 73 | 1035.3 |
| 20260503213718 | 57 | 33 | 4.0 | 7.0 | 0.00 | 0.00 | 0.00 | 74 | 1035.3 |
| 20260503211933 | 56 | 54 | 3.0 | 7.0 | 0.00 | 0.00 | 0.00 | 75 | 1035.3 |
| 20260503211425 | 56 | 35 | 3.0 | 7.0 | 0.00 | 0.00 | 0.00 | 75 | 1035.3 |
| 20260503210917 | 56 | 23 | 3.0 | 8.0 | 0.00 | 0.00 | 0.00 | 75 | 1035.2 |
| 20260503210410 | 56 | 51 | 4.0 | 8.0 | 0.00 | 0.00 | 0.00 | 75 | 1035.2 |
| 20260503205251 | 55 | 21 | 4.0 | 7.0 | 0.00 | 0.00 | 0.00 | 76 | 1035.2 |
| 20260503204734 | 55 | 35 | 4.0 | 7.0 | 0.00 | 0.00 | 0.00 | 76 | 1035.2 |
| 20260503204220 | 55 | 58 | 4.0 | 7.0 | 0.00 | 0.00 | 0.00 | 77 | 1035.3 |
| 20260503203717 | 55 | 33 | 4.0 | 7.0 | 0.00 | 0.00 | 0.00 | 77 | 1035.2 |
| 20260503203217 | 55 | 33 | 3.0 | 6.0 | 0.00 | 0.00 | 0.00 | 77 | 1035.2 |
| 20260503202703 | 55 | 61 | 2.0 | 5.0 | 0.00 | 0.00 | 0.00 | 78 | 1035.2 |
| 20260503202142 | 55 | 338 | 2.0 | 5.0 | 0.00 | 0.00 | 0.00 | 78 | 1035.1 |
| 20260503201642 | 54 | 40 | 2.0 | 5.0 | 0.00 | 0.00 | 0.00 | 78 | 1035.1 |
| 20260503201122 | 54 | 66 | 2.0 | 7.0 | 0.00 | 0.00 | 0.00 | 78 | 1035.0 |
| 20260503200011 | 54 | 47 | 3.0 | 7.0 | 0.00 | 0.00 | 0.00 | 79 | 1035.0 |
| 20260503195520 | 54 | 28 | 3.0 | 7.0 | 0.00 | 0.00 | 0.00 | 80 | 1035.0 |
| 20260503194401 | 53 | 56 | 2.0 | 6.0 | 0.00 | 0.00 | 0.00 | 81 | 1034.8 |
| 20260503193843 | 53 | 75 | 2.0 | 6.0 | 0.00 | 0.00 | 0.00 | 81 | 1034.8 |
| 20260503193340 | 52 | 26 | 2.0 | 5.0 | 0.00 | 0.00 | 0.00 | 82 | 1034.8 |
| 20260503192825 | 52 | 40 | 1.0 | 4.0 | 0.00 | 0.00 | 0.00 | 82 | 1034.8 |
| 20260503192332 | 52 | 33 | 1.0 | 3.0 | 0.00 | 0.00 | 0.00 | 82 | 1034.8 |
| 20260503191825 | 52 | 33 | 1.0 | 3.0 | 0.00 | 0.00 | 0.00 | 82 | 1034.7 |
| 20260503191324 | 52 | 75 | 1.0 | 4.0 | 0.00 | 0.00 | 0.00 | 82 | 1034.7 |
| 20260503190812 | 52 | 47 | 2.0 | 4.0 | 0.00 | 0.00 | 0.00 | 83 | 1034.7 |
| 20260503190254 | 51 | 49 | 2.0 | 4.0 | 0.00 | 0.00 | 0.00 | 83 | 1034.7 |
| 20260503185109 | 51 | 49 | 1.0 | 3.0 | 0.00 | 0.00 | 0.00 | 82 | 1034.7 |
| 20260503184611 | 51 | 94 | 1.0 | 3.0 | 0.00 | 0.00 | 0.00 | 82 | 1034.6 |
| 20260503184109 | 51 | 91 | 1.0 | 2.0 | 0.00 | 0.00 | 0.00 | 81 | 1034.7 |
| 20260503182951 | 51 | 106 | 0.0 | 2.0 | 0.00 | 0.00 | 0.00 | 81 | 1034.7 |
| 20260503182454 | 51 | 134 | 0.0 | 1.0 | 0.00 | 0.00 | 0.00 | 81 | 1034.6 |
| 20260503181954 | 51 | 40 | 0.0 | 2.0 | 0.00 | 0.00 | 0.00 | 81 | 1034.7 |
| 20260503181440 | 51 | 90 | 1.0 | 2.0 | 0.00 | 0.00 | 0.00 | 81 | 1034.6 |
| 20260503180937 | 51 | 107 | 1.0 | 3.0 | 0.00 | 0.00 | 0.00 | 81 | 1034.6 |
| 20260503180420 | 51 | 85 | 1.0 | 3.0 | 0.00 | 0.00 | 0.00 | 81 | 1034.6 |
| 20260503175906 | 51 | 107 | 1.0 | 3.0 | 0.00 | 0.00 | 0.00 | 81 | 1034.6 |
| 20260503175351 | 51 | 112 | 1.0 | 3.0 | 0.00 | 0.00 | 0.00 | 81 | 1034.6 |
| 20260503174851 | 51 | 98 | 0.0 | 2.0 | 0.00 | 0.00 | 0.00 | 80 | 1034.6 |
| 20260503174341 | 51 | 119 | 1.0 | 2.0 | 0.00 | 0.00 | 0.00 | 80 | 1034.6 |
| 20260503173206 | 51 | 104 | 1.0 | 3.0 | 0.00 | 0.00 | 0.00 | 80 | 1034.5 |
| 20260503172700 | 51 | 112 | 1.0 | 3.0 | 0.00 | 0.00 | 0.00 | 80 | 1034.4 |
| 20260503172154 | 51 | 106 | 1.0 | 3.0 | 0.00 | 0.00 | 0.00 | 80 | 1034.5 |
| 20260503171656 | 51 | 106 | 1.0 | 3.0 | 0.00 | 0.00 | 0.00 | 80 | 1034.5 |
| 20260503171200 | 51 | 106 | 1.0 | 3.0 | 0.00 | 0.00 | 0.00 | 80 | 1034.6 |
| 20260503170657 | 51 | 73 | 1.0 | 2.0 | 0.00 | 0.00 | 0.00 | 80 | 1034.6 |
| 20260503170151 | 51 | 82 | 0.0 | 2.0 | 0.00 | 0.00 | 0.00 | 80 | 1034.6 |
| 20260503140115 | 51 | 112 | 2.0 | 5.0 | 0.00 | 0.00 | 0.00 | 81 | 1035.1 |
| 20260503130658 | 50 | 99 | 1.0 | 4.0 | 0.00 | 0.00 | 0.00 | 82 | 1034.9 |
| 20260503120134 | 49 | 106 | 3.0 | 7.0 | 0.00 | 0.00 | 0.00 | 83 | 1034.8 |
| 20260503110622 | 48 | 114 | 3.0 | 6.0 | 0.00 | 0.00 | 0.00 | 85 | 1034.6 |
| 20260503110123 | 48 | 91 | 3.0 | 6.0 | 0.00 | 0.00 | 0.00 | 85 | 1034.6 |
| 20260503100140 | 47 | 120 | 3.0 | 6.0 | 0.00 | 0.00 | 0.00 | 86 | 1034.5 |
| 20260503081003 | 45 | 47 | 2.0 | 4.0 | 0.00 | 0.00 | 0.00 | 84 | 1033.9 |
| 20260503080511 | 45 | 73 | 1.0 | 4.0 | 0.00 | 0.00 | 0.00 | 84 | 1034.0 |
| 20260503072855 | 47 | 40 | 1.0 | 2.0 | 0.00 | 0.00 | 0.00 | 82 | 1033.8 |
| 20260503072359 | 47 | 58 | 1.0 | 2.0 | 0.00 | 0.00 | 0.00 | 81 | 1033.8 |
| 20260503071904 | 47 | 66 | 1.0 | 2.0 | 0.00 | 0.00 | 0.00 | 80 | 1033.7 |
| 20260503071402 | 48 | 66 | 1.0 | 2.0 | 0.00 | 0.00 | 0.00 | 80 | 1033.7 |
| 20260503070858 | 48 | 84 | 0.0 | 2.0 | 0.00 | 0.00 | 0.00 | 80 | 1033.7 |
| 20260503070354 | 48 | 77 | 0.0 | 2.0 | 0.00 | 0.00 | 0.00 | 80 | 1033.7 |
| 20260503054930 | 55 | 338 | 1.0 | 2.0 | 0.00 | 0.00 | 0.00 | 71 | 1033.6 |
| 20260503054417 | 55 | 5 | 1.0 | 5.0 | 0.00 | 0.00 | 0.00 | 71 | 1033.6 |
| 20260503053909 | 56 | 23 | 1.0 | 5.0 | 0.00 | 0.00 | 0.00 | 70 | 1033.6 |
| 20260503052725 | 56 | 37 | 1.0 | 5.0 | 0.00 | 0.00 | 0.00 | 70 | 1033.6 |
| 20260503051548 | 57 | 23 | 2.0 | 4.0 | 0.00 | 0.00 | 0.00 | 69 | 1033.5 |
| 20260503051045 | 57 | 350 | 1.0 | 4.0 | 0.00 | 0.00 | 0.00 | 68 | 1033.5 |
| 20260503050541 | 58 | 338 | 1.0 | 4.0 | 0.00 | 0.00 | 0.00 | 68 | 1033.5 |
| 20260503050032 | 58 | 345 | 1.0 | 4.0 | 0.00 | 0.00 | 0.00 | 68 | 1033.5 |
| 20260503045512 | 58 | 291 | 0.0 | 4.0 | 0.00 | 0.00 | 0.00 | 69 | 1033.5 |
| 20260503045022 | 58 | 246 | 0.0 | 5.0 | 0.00 | 0.00 | 0.00 | 70 | 1033.5 |
| 20260503043854 | 58 | 280 | 2.0 | 5.0 | 0.00 | 0.00 | 0.00 | 69 | 1033.5 |
| 20260503043334 | 58 | 261 | 1.0 | 5.0 | 0.00 | 0.00 | 0.00 | 69 | 1033.5 |
| 20260503042832 | 58 | 319 | 1.0 | 5.0 | 0.00 | 0.00 | 0.00 | 68 | 1033.5 |
| 20260503041711 | 59 | 329 | 2.0 | 6.0 | 0.00 | 0.00 | 0.00 | 67 | 1033.5 |
| 20260503041217 | 59 | 246 | 2.0 | 7.0 | 0.00 | 0.00 | 0.00 | 66 | 1033.5 |
| 20260503035427 | 61 | 287 | 3.0 | 7.0 | 0.00 | 0.00 | 0.00 | 64 | 1033.4 |
| 20260503034925 | 61 | 23 | 3.0 | 7.0 | 0.00 | 0.00 | 0.00 | 63 | 1033.4 |
| 20260503034410 | 61 | 327 | 2.0 | 7.0 | 0.00 | 0.00 | 0.00 | 63 | 1033.4 |
| 20260503033915 | 61 | 326 | 3.0 | 7.0 | 0.00 | 0.00 | 0.00 | 63 | 1033.4 |
| 20260503033408 | 61 | 292 | 2.0 | 7.0 | 0.00 | 0.00 | 0.00 | 63 | 1033.4 |
| 20260503032901 | 61 | 272 | 3.0 | 7.0 | 0.00 | 0.00 | 0.00 | 63 | 1033.4 |
| 20260503032344 | 61 | 246 | 3.0 | 7.0 | 0.00 | 0.00 | 0.00 | 62 | 1033.5 |
| 20260503031209 | 62 | 275 | 3.0 | 7.0 | 0.00 | 0.00 | 0.00 | 62 | 1033.4 |
| 20260503030659 | 62 | 232 | 3.0 | 7.0 | 0.00 | 0.00 | 0.00 | 62 | 1033.4 |
| 20260503025540 | 62 | 299 | 3.0 | 6.0 | 0.00 | 0.00 | 0.00 | 62 | 1033.4 |
| 20260503024434 | 62 | 281 | 3.0 | 6.0 | 0.00 | 0.00 | 0.00 | 62 | 1033.5 |
| 20260503023924 | 62 | 274 | 2.0 | 9.0 | 0.00 | 0.00 | 0.00 | 64 | 1033.5 |
| 20260503023404 | 61 | 256 | 3.0 | 9.0 | 0.00 | 0.00 | 0.00 | 64 | 1033.6 |
| 20260503022908 | 61 | 304 | 4.0 | 9.0 | 0.00 | 0.00 | 0.00 | 63 | 1033.6 |
| 20260503022354 | 60 | 251 | 4.0 | 9.0 | 0.00 | 0.00 | 0.00 | 63 | 1033.6 |
| 20260503021844 | 60 | 237 | 5.0 | 9.0 | 0.00 | 0.00 | 0.00 | 64 | 1033.7 |